Weather History for KSFM - April, 2012

Change the Weather History Date:

Friday, April 27, 2012

  Actual Average (KPWM) Record (KPWM)
Temperature  
Mean Temperature 44 °F 48 °F  
Max Temperature 50 °F 58 °F 84 °F (1990)
Min Temperature 35 °F 38 °F 25 °F (1958)
Degree Days  
Heating Degree Days 22 17  
Month to date heating degree days 580  
Since 1 July heating degree days 6598  
Cooling Degree Days 0 0  
Month to date cooling degree days 0  
Year to date cooling degree days 0  
Moisture  
Dew Point 35 °F    
Average Humidity 67    
Maximum Humidity 100    
Minimum Humidity 46    
Precipitation  
Precipitation 0.22 in 0.15 in 3.59 in (1979)
Month to date precipitation 3.88  
Year to date precipitation 14.75  
Snow  
Snow 0.00 in 0.00 in 0.40 in (1993)
Month to date snowfall 2.7  
Since 1 July snowfall 61.8  
Snow Depth -    
Sea Level Pressure  
Sea Level Pressure 29.63 in    
Wind  
Wind Speed 11 mph (WNW)    
Max Wind Speed 33 mph    
Max Gust Speed 48 mph    
Visibility 9 miles    
Events      
T = Trace of Precipitation, MM = Missing Value Source: NWS Daily Summary

Daily Weather History Graph

Daily Weather History Graph

Search for Another Location

Airport or City:

Trip Planner

Search our weather history database for the weather conditions in past years. The results will help you decide how hot, cold, wet, or windy it might be!

Date:

Astronomy

Apr. 27, 2012 Rise Set
Actual Time 5:40 AM EDT 7:40 PM EDT
Civil Twilight 5:10 AM EDT 8:11 PM EDT
Nautical Twilight 4:32 AM EDT 8:49 PM EDT
Astronomical Twilight 3:50 AM EDT 9:31 PM EDT
Moon 10:13 AM EDT (4/27) 12:28 AM EDT (4/27)
Length of Visible Light 15h 01m
Length of Day
13h 59m
Waxing Crescent, 33% of the Moon is Illuminated
Apr 27
Waxing Crescent
Apr 29
First Quarter
May 5
Full
May 12
Last Quarter
May 20
New

Hourly Weather History & Observations

Time (EDT) Temp. Windchill Dew Point Humidity Pressure Visibility Wind Dir Wind Speed Gust Speed Precip Events Conditions
12:15 AM 48.2 °F - 46.4 °F 93% 29.56 in 9.0 mi Calm Calm - N/A   Overcast
12:35 AM 48.2 °F - 46.4 °F 93% 29.57 in 8.0 mi NW 3.5 mph - N/A   Overcast
12:55 AM 48.2 °F - 46.4 °F 93% 29.55 in 3.0 mi Calm Calm - 0.02 in   Overcast
1:15 AM 48.2 °F - 46.4 °F 93% 29.53 in 5.0 mi Calm Calm - 0.02 in   Overcast
1:35 AM 48.2 °F - 46.4 °F 93% 29.52 in 4.0 mi NE 3.5 mph - 0.05 in   Overcast
1:55 AM 48.2 °F - 46.4 °F 93% 29.51 in 5.0 mi NNE 5.8 mph - 0.11 in   Overcast
2:15 AM 48.2 °F - 48.2 °F 100% 29.50 in 4.0 mi North 3.5 mph - 0.03 in   Overcast
2:35 AM 48.2 °F - 46.4 °F 93% 29.49 in 4.0 mi NNW 3.5 mph - 0.05 in   Overcast
2:55 AM 48.2 °F - 46.4 °F 93% 29.49 in 7.0 mi Calm Calm - 0.05 in   Overcast
3:35 AM 48.2 °F - 46.4 °F 93% 29.47 in 4.0 mi Calm Calm - 0.03 in   Overcast
3:55 AM 48.2 °F - 46.4 °F 93% 29.46 in 5.0 mi Calm Calm - 0.03 in   Overcast
4:15 AM 48.2 °F - 48.2 °F 100% 29.47 in 10.0 mi WNW 4.6 mph - N/A   Overcast
4:35 AM 48.2 °F - 46.4 °F 93% 29.47 in 10.0 mi WNW 5.8 mph - 0.01 in   Overcast
4:55 AM 48.2 °F - 46.4 °F 93% 29.46 in 10.0 mi WNW 8.1 mph - 0.01 in   Overcast
5:15 AM 48.2 °F - 46.4 °F 93% 29.46 in 10.0 mi WNW 5.8 mph - N/A   Overcast
5:35 AM 48.2 °F - 46.4 °F 93% 29.46 in 10.0 mi West 5.8 mph - N/A   Overcast
6:15 AM 48.2 °F - 44.6 °F 87% 29.46 in 10.0 mi West 16.1 mph - N/A   Overcast
6:35 AM 48.2 °F - 44.6 °F 87% 29.47 in 10.0 mi West 12.7 mph 19.6 mph N/A   Overcast
6:55 AM 48.2 °F - 42.8 °F 82% 29.47 in 10.0 mi West 10.4 mph 16.1 mph N/A   Overcast
7:15 AM 46.4 °F 41.1 °F 42.8 °F 87% 29.47 in 10.0 mi West 11.5 mph 18.4 mph N/A   Overcast
7:35 AM 46.4 °F 41.9 °F 42.8 °F 87% 29.48 in 10.0 mi West 9.2 mph - N/A   Overcast
7:55 AM 46.4 °F 41.9 °F 42.8 °F 87% 29.48 in 10.0 mi West 9.2 mph 18.4 mph N/A   Overcast
8:15 AM 46.4 °F 40.4 °F 41.0 °F 81% 29.48 in 10.0 mi West 13.8 mph 18.4 mph N/A   Overcast
8:35 AM 46.4 °F 40.1 °F 39.2 °F 76% 29.50 in 10.0 mi West 15.0 mph 21.9 mph N/A   Overcast
8:55 AM 46.4 °F 40.1 °F 39.2 °F 76% 29.50 in 10.0 mi West 15.0 mph 26.5 mph N/A   Overcast
9:15 AM 48.2 °F - 39.2 °F 71% 29.50 in 10.0 mi West 13.8 mph 28.8 mph N/A   Overcast
9:35 AM 48.2 °F - 37.4 °F 66% 29.52 in 10.0 mi WNW 10.4 mph 20.7 mph N/A   Overcast
9:55 AM 50.0 °F - 37.4 °F 62% 29.52 in 10.0 mi WNW 20.7 mph 29.9 mph N/A   Mostly Cloudy
10:15 AM 48.2 °F - 35.6 °F 62% 29.53 in 10.0 mi WNW 15.0 mph 32.2 mph N/A   Mostly Cloudy
10:35 AM 48.2 °F - 33.8 °F 58% 29.54 in 10.0 mi WNW 26.5 mph 36.8 mph N/A   Mostly Cloudy
10:55 AM 48.2 °F - 33.8 °F 58% 29.56 in 10.0 mi WNW 19.6 mph 33.4 mph N/A   Mostly Cloudy
11:15 AM 48.2 °F - 33.8 °F 58% 29.57 in 10.0 mi West 26.5 mph 36.8 mph N/A   Mostly Cloudy
11:35 AM 50.0 °F - 33.8 °F 54% 29.58 in 10.0 mi West 24.2 mph 38.0 mph N/A   Mostly Cloudy
11:55 AM 48.2 °F - 33.8 °F 58% 29.59 in 10.0 mi WNW 23.0 mph 40.3 mph N/A   Mostly Cloudy
12:15 PM 48.2 °F - 30.2 °F 50% 29.60 in 10.0 mi West 24.2 mph 36.8 mph N/A   Mostly Cloudy
12:55 PM 48.2 °F - 30.2 °F 50% 29.62 in 10.0 mi WNW 27.6 mph 41.4 mph N/A   Partly Cloudy
1:15 PM 48.2 °F - 30.2 °F 50% 29.62 in 10.0 mi WNW 28.8 mph 40.3 mph N/A   Clear
1:35 PM 48.2 °F - 30.2 °F 50% 29.64 in 10.0 mi WNW 24.2 mph 40.3 mph N/A   Partly Cloudy
1:55 PM 48.2 °F - 28.4 °F 46% 29.63 in 10.0 mi WNW 25.3 mph 43.7 mph N/A   Partly Cloudy
2:15 PM 48.2 °F - 28.4 °F 46% 29.64 in 10.0 mi WNW 24.2 mph 44.9 mph N/A   Clear
2:35 PM 48.2 °F - 30.2 °F 50% 29.65 in 10.0 mi West 26.5 mph 36.8 mph N/A   Clear
2:55 PM 48.2 °F - 28.4 °F 46% 29.66 in 10.0 mi West 25.3 mph 39.1 mph N/A   Clear
3:16 PM 48.2 °F - 28.4 °F 46% 29.66 in 10.0 mi WNW 20.7 mph 38.0 mph N/A   Clear
3:35 PM 48.2 °F - 28.4 °F 46% 29.67 in 10.0 mi West 33.4 mph 48.3 mph N/A   Clear
3:55 PM 48.2 °F - 28.4 °F 46% 29.68 in 10.0 mi WNW 23.0 mph 32.2 mph N/A   Clear
4:15 PM 48.2 °F - 28.4 °F 46% 29.69 in 10.0 mi WNW 20.7 mph 35.7 mph N/A   Clear
4:35 PM 48.2 °F - 28.4 °F 46% 29.71 in 10.0 mi WNW 17.3 mph 33.4 mph N/A   Partly Cloudy
4:55 PM 46.4 °F 37.7 °F 26.6 °F 46% 29.72 in 10.0 mi WNW 26.5 mph 35.7 mph N/A   Scattered Clouds
5:15 PM 46.4 °F 39.5 °F 26.6 °F 46% 29.75 in 10.0 mi WNW 17.3 mph 29.9 mph N/A   Mostly Cloudy
5:35 PM 46.4 °F 38.5 °F 28.4 °F 50% 29.76 in 10.0 mi WNW 21.9 mph 25.3 mph N/A   Overcast
5:55 PM 44.6 °F 37.2 °F 26.6 °F 49% 29.78 in 10.0 mi NW 17.3 mph 32.2 mph N/A   Mostly Cloudy
6:15 PM 42.8 °F 32.7 °F 26.6 °F 53% 29.78 in 10.0 mi WNW 27.6 mph 36.8 mph N/A   Mostly Cloudy
6:35 PM 42.8 °F 34.5 °F 26.6 °F 53% 29.80 in 10.0 mi WNW 18.4 mph 32.2 mph N/A   Mostly Cloudy
6:56 PM 41.0 °F 31.9 °F 24.8 °F 53% 29.81 in 10.0 mi WNW 19.6 mph 33.4 mph N/A   Mostly Cloudy
7:15 PM 39.2 °F 30.8 °F 26.6 °F 61% 29.81 in 10.0 mi WNW 15.0 mph 26.5 mph N/A   Mostly Cloudy
7:55 PM 39.2 °F 29.8 °F 24.8 °F 56% 29.85 in 10.0 mi WNW 18.4 mph 28.8 mph N/A   Mostly Cloudy
8:15 PM 37.4 °F 26.9 °F 24.8 °F 60% 29.85 in 10.0 mi WNW 20.7 mph 32.2 mph N/A   Partly Cloudy
8:35 PM 37.4 °F 26.9 °F 24.8 °F 60% 29.86 in 10.0 mi West 20.7 mph 28.8 mph N/A   Clear
8:55 PM 37.4 °F 26.6 °F 26.6 °F 65% 29.85 in 10.0 mi West 21.9 mph 39.1 mph N/A   Clear
9:15 PM 37.4 °F 28.2 °F 24.8 °F 60% 29.87 in 10.0 mi WNW 16.1 mph 27.6 mph N/A   Clear
9:36 PM 37.4 °F 29.8 °F 23.0 °F 56% 29.89 in 10.0 mi WNW 11.5 mph 24.2 mph N/A   Clear
9:55 PM 37.4 °F 27.8 °F 21.2 °F 52% 29.90 in 10.0 mi WNW 17.3 mph 31.1 mph N/A   Scattered Clouds
10:15 PM 37.4 °F 28.9 °F 21.2 °F 52% 29.90 in 10.0 mi WNW 13.8 mph 26.5 mph N/A   Scattered Clouds
10:35 PM 37.4 °F 29.3 °F 21.2 °F 52% 29.90 in 10.0 mi West 12.7 mph 25.3 mph N/A   Mostly Cloudy
10:55 PM 37.4 °F 28.5 °F 21.2 °F 52% 29.90 in 10.0 mi WNW 15.0 mph 24.2 mph N/A   Mostly Cloudy
11:15 PM 37.4 °F 26.4 °F 23.0 °F 56% 29.91 in 10.0 mi WNW 23.0 mph 34.5 mph N/A   Overcast
11:55 PM 35.6 °F 25.9 °F 24.8 °F 65% 29.93 in 10.0 mi WNW 16.1 mph 27.6 mph N/A   Overcast